Flag for United Kingdom Weather past 2 weeks in Edinburgh, Scotland, United Kingdom

Now
59 °F

Scattered clouds.


Feels Like: 57 °F
Forecast: 50 / 63 °F
Wind: 12 mph from Southwest

Location: Edinburgh Airport

Current Time: Aug 29, 2015 at 8:44:04 AM

Latest Report: Aug 29, 2015 at 8:20 AM


Visibility: N/A

Pressure: 29.89 "Hg

Humidity: 77%

Dew point: 52 °F

Location of EdinburghLocation

Historic Weather in Edinburgh — Graph

°F

Edinburgh temperature yesterday

Maximum temperature yesterday: 64 °F (at 11:50 AM)
Minimum temperature yesterday: 50 °F (at 1:50 AM)
Average temperature yesterday: 57 °F

Past Weeks' High & Low Weather Summary

 TemperatureHumidityPressure
High75 °F (Aug 23, 1:20 PM)100% (Aug 14, 6:20 AM)30.12 "Hg (Aug 14, 6:20 AM)
Low39 °F (Aug 16, 4:50 AM)44% (Aug 23, 2:20 PM)29.27 "Hg (Aug 26, 11:20 AM)
Average58 °F80%29.77 "Hg
* Reported Aug 14 6:20 AM — Aug 29 6:50 AM, Edinburgh, Weather by CustomWeather, © 2015

Note: Actual official high and low records may vary slightly from our data, if they occured in-between our weather recording intervals... More about our weather records

Advertising

Edinburgh weather history for previous 24 hours

 ConditionsComfort  
Time TempWeatherWind HumidityBarometerVisibility
6:50 AM
Sat, Aug 29
57 °FPassing clouds.8 mph82%29.89 "HgN/A
6:20 AM55 °FPassing clouds.7 mph82%29.89 "HgN/A
5:50 AM54 °FClear.7 mph88%29.86 "Hg10 mi
5:20 AM54 °FClear.8 mph88%29.86 "Hg10 mi
4:50 AM54 °FClear.7 mph88%29.86 "Hg10 mi
4:20 AM54 °FClear.7 mph88%29.86 "Hg10 mi
3:50 AM55 °FClear.9 mph82%29.86 "Hg10 mi
3:20 AM57 °FPartly cloudy.10 mph77%29.86 "HgN/A
2:50 AM57 °FPartly cloudy.7 mph77%29.86 "HgN/A
2:20 AM57 °FPassing clouds.10 mph77%29.86 "HgN/A
1:50 AM57 °FPassing clouds.12 mph77%29.86 "HgN/A
1:20 AM57 °FPassing clouds.12 mph82%29.86 "HgN/A
12:50 AM57 °FPassing clouds.13 mph82%29.86 "HgN/A
12:20 AM57 °FPassing clouds.15 mph82%29.83 "HgN/A
11:50 PM
Fri, Aug 28
57 °FClear.15 mph82%29.83 "Hg10 mi
11:20 PM59 °FClear.16 mph77%29.83 "Hg10 mi
10:50 PM59 °FClear.15 mph77%29.83 "Hg10 mi
10:20 PM59 °FClear.15 mph77%29.83 "Hg10 mi
9:50 PM59 °FClear.16 mph77%29.80 "Hg10 mi
9:20 PM57 °FClear.12 mph77%29.80 "Hg10 mi
8:50 PM57 °FSunny.10 mph77%29.80 "Hg10 mi
8:20 PM57 °FSunny.9 mph77%29.80 "Hg10 mi
7:50 PM59 °FSunny.9 mph72%29.80 "Hg10 mi
7:20 PM61 °FSunny.13 mph72%29.80 "Hg10 mi
6:50 PM59 °FPassing clouds.13 mph77%29.80 "HgN/A
6:20 PM59 °FPassing clouds.17 mph77%29.80 "HgN/A
5:50 PM61 °FScattered clouds.15 mph68%29.80 "HgN/A
5:20 PM63 °FPassing clouds.16 mph68%29.77 "HgN/A
4:50 PM63 °FScattered clouds.10 mph73%29.77 "HgN/A
4:20 PM59 °FPassing clouds.12 mph82%29.80 "HgN/A
3:50 PM57 °FSprinkles. Scattered clouds.14 mph82%29.80 "HgN/A
3:20 PM57 °FSleet. Broken clouds.17 mph82%29.80 "HgN/A
2:50 PM61 °FSprinkles. Scattered clouds.22 mph63%29.77 "HgN/A
2:20 PM63 °FPassing clouds.16 mph59%29.77 "HgN/A
1:50 PM61 °FScattered showers. Scattered clouds.12 mph68%29.77 "HgN/A
1:20 PM64 °FScattered clouds.18 mph56%29.77 "HgN/A
12:50 PM64 °FScattered clouds.21 mph56%29.77 "HgN/A
12:20 PM64 °FScattered clouds.18 mph60%29.74 "HgN/A
11:50 AM64 °FScattered clouds.17 mph60%29.74 "HgN/A
11:20 AM63 °FScattered clouds.16 mph64%29.74 "HgN/A
10:50 AM61 °FScattered clouds.14 mph72%29.74 "HgN/A
10:20 AM59 °FScattered clouds.15 mph72%29.74 "HgN/A
9:50 AM59 °FScattered clouds.15 mph77%29.74 "HgN/A
9:20 AM57 °FScattered clouds.13 mph82%29.74 "HgN/A
8:50 AM55 °FScattered clouds.14 mph82%29.74 "HgN/A
8:20 AM55 °FScattered clouds.14 mph82%29.71 "HgN/A
Weather by CustomWeather, © 2015

See weather overviewHow to use our weather pages